Starlink 3964

operational
NORAD ID: 52536 Int'l Des: 2022-051 Owner: SPXS Country: US Constellation: starlink
LEOCIRCULAR

About Starlink 3964

Description loading...

Live Position

Loading 3D Globe...

Upcoming Passes

Altitude History

Altitude vs Time

uPlot chart will show altitude changes over time

Two-Line Element Set

1 52536U 22051D 25347.66055883 -.00000041 00000-0 15512-4 0 9997
2 52536 53.2156 155.3207 0001362 84.3699 275.7449 15.08840798198454
Epoch: Dec 13, 2025 • Age: 15 hours

Current Status

Altitude 541.7 km
Velocity 7.60 km/s
Sub-Earth Point 35.36°N, 5.8°E
Launch Date May 13, 2022
Age 3.5 years
Type internet

Technical Details

Classification Payload
Mass 297.00 kg
Dry Mass 275.00 kg
Total Mass 297.00 kg
Length 0.20 m
Diameter 2.80 m
Span 9.00 m
Shape Box + pan
Manufacturer SPXS
Bus Type Starlink
Phase Status In Orbit
Owner/State SPXS/US

Large Constellations

Loading constellations...